Location: *
(37.5724°S, 58.0067°E)
Time: 00:48:42
(UTC+00:00)

NOSS 3-1 (A) - Visible Passes

Search period start: 24 January 2021 00:00
Search period end: 03 February 2021 00:00
Orbit: 741 x 1472 km, 63.4° (Epoch: 22 January)

Date Brightness Start Highest point End Pass type
(mag) Time Alt. Az. Time Alt. Az. Time Alt. Az.
24 Jan 4.9 17:38:30 30° ENE 17:38:45 30° ENE 17:45:42 10° SE visible
24 Jan 4.4 19:25:50 38° WNW 19:29:30 66° SW 19:37:24 10° SSE visible
24 Jan 6.1 21:16:19 10° WSW 21:21:54 19° SW 21:27:03 10° S visible
25 Jan 5.4 16:53:35 19° ENE 16:54:16 19° ENE 16:59:42 10° ESE visible
25 Jan 4.1 18:40:53 40° NNW 18:44:37 87° ENE 18:52:41 10° SSE visible
25 Jan 5.8 20:29:33 10° W 20:36:30 26° SW 20:42:47 10° SSE visible
26 Jan 5.8 16:08:45 10° ENE 16:09:56 10° ENE 16:11:05 10° E visible
26 Jan 4.2 17:55:05 29° N 17:59:51 60° ENE 18:07:48 10° SE visible
26 Jan 5.3 19:43:19 10° WNW 19:51:16 37° SW 19:58:23 10° SSE visible
26 Jan 6.5 21:42:21 10° SW 21:44:37 11° SSW 21:46:49 10° S visible
27 Jan 4.6 17:07:04 10° N 17:15:11 40° ENE 17:22:39 10° SE visible
27 Jan 4.8 18:57:34 10° NW 19:06:11 53° SW 19:13:52 10° SSE visible
27 Jan 6.4 20:54:22 10° WSW 20:58:56 15° SSW 21:03:12 10° S visible
28 Jan 6.4 00:46:03 10° S 00:48:31 12° SSE 00:50:51 10° SE visible
28 Jan 5.1 16:23:45 10° NNE 16:30:38 26° ENE 16:37:06 10° ESE visible
28 Jan 4.3 18:12:16 10° NW 18:21:13 76° WSW 18:29:14 10° SSE visible
28 Jan 6.1 20:07:15 10° W 20:13:25 21° SW 20:19:03 10° S visible
29 Jan 4.1 17:27:26 10° NNW 17:36:24 76° ENE 17:44:27 10° SE visible
29 Jan 5.7 19:20:42 10° WNW 19:28:05 30° SW 19:34:43 10° SSE visible
30 Jan 4.4 16:43:05 10° N 16:51:40 51° ENE 16:59:28 10° SE visible
30 Jan 5.2 18:34:39 10° WNW 18:42:54 42° SW 18:50:17 10° SSE visible
30 Jan 6.6 20:32:42 10° SW 20:36:01 13° SSW 20:39:11 10° S visible
31 Jan 6.3 00:22:01 10° S 00:25:33 15° SSE 00:28:49 10° ESE visible
31 Jan 4.8 15:59:19 10° N 16:07:03 34° ENE 16:14:11 10° SE visible
31 Jan 4.6 17:49:05 10° NW 17:57:53 61° SW 18:05:43 10° SSE visible
31 Jan 6.4 19:45:09 10° WSW 19:50:24 18° SW 19:55:15 10° S visible
31 Jan 6.6 23:38:32 10° S 23:39:57 11° SSE 23:41:20 10° SE visible
01 Feb 4.2 17:03:58 10° NNW 17:12:58 87° WSW 17:21:02 10° SSE visible
01 Feb 6.1 18:58:17 10° W 19:04:57 24° SW 19:11:01 10° SSE visible
02 Feb 5.7 00:42:30 10° SSW 00:47:49 27° SE 00:52:31 10° E visible
02 Feb 4.2 16:19:19 10° NNW 16:28:11 65° ENE 16:36:11 10° SE visible
02 Feb 5.6 18:11:56 10° WNW 18:19:41 34° SW 18:26:39 10° SSE visible
02 Feb 6.8 20:11:40 10° SW 20:13:11 11° SSW 20:14:39 10° SSW visible
